Time,TemperatureF,DewpointF,PressureIn,WindDirection,WindDirectionDegrees,WindSpeedMPH,WindSpeedGustMPH,Humidity,HourlyPrecipIn,Conditions,Clouds,dailyrainin,SoftwareType,DateUTC
2013-01-26 00:00:00,34.0,-99.9,29.44,North,-999,-999.0,-999.0,-999,-99.99,,,-99.99,,2013-01-26 00:00:00,
2013-01-26 00:42:00,34.0,-99.9,29.44,North,-999,-999.0,-999.0,-999,-99.99,,,-99.99,,2013-01-26 00:42:00,
2013-01-26 00:53:00,34.0,-99.9,29.44,North,-999,-999.0,-999.0,-999,-99.99,,,-99.99,,2013-01-26 00:53:00,
2013-01-26 01:00:00,34.0,-99.9,29.46,North,-999,-999.0,-999.0,-999,-99.99,,,-99.99,,2013-01-26 01:00:00,
2013-01-26 01:42:00,34.0,-99.9,29.46,North,-999,-999.0,-999.0,-999,-99.99,,,-99.99,,2013-01-26 01:42:00,
2013-01-26 01:53:00,34.0,-99.9,29.46,North,-999,-999.0,-999.0,-999,-99.99,,,-99.99,,2013-01-26 01:53:00,
2013-01-26 02:00:00,35.0,35.0,29.50,North,-999,-999.0,-999.0,100,-99.99,,,-99.99,,2013-01-26 02:00:00,
2013-01-26 02:32:00,35.0,35.0,29.50,North,-999,-999.0,-999.0,100,-99.99,,,-99.99,,2013-01-26 02:32:00,
2013-01-26 02:41:00,35.0,35.0,29.50,North,-999,-999.0,-999.0,100,-99.99,,,-99.99,,2013-01-26 02:41:00,
2013-01-26 02:52:00,35.0,35.0,29.50,North,-999,-999.0,-999.0,100,-99.99,,,-99.99,,2013-01-26 02:52:00,
2013-01-26 03:00:00,41.0,41.0,29.55,North,-999,-999.0,-999.0,100,-99.99,,,-99.99,,2013-01-26 03:00:00,
2013-01-26 03:42:00,41.0,41.0,29.55,North,-999,-999.0,-999.0,100,-99.99,,,-99.99,,2013-01-26 03:42:00,
2013-01-26 03:51:00,41.0,41.0,29.55,North,-999,-999.0,-999.0,100,-99.99,,,-99.99,,2013-01-26 03:51:00,
2013-01-26 04:00:00,41.0,40.0,29.57,North,-999,-999.0,-999.0,97,-99.99,,,-99.99,,2013-01-26 04:00:00,
2013-01-26 04:42:00,41.0,40.0,29.57,North,-999,-999.0,-999.0,97,-99.99,,,-99.99,,2013-01-26 04:42:00,
2013-01-26 04:52:00,41.0,40.0,29.57,North,-999,-999.0,-999.0,97,-99.99,,,-99.99,,2013-01-26 04:52:00,
2013-01-26 05:00:00,44.0,40.0,29.57,North,-999,-999.0,-999.0,83,-99.99,,,-99.99,,2013-01-26 05:00:00,
2013-01-26 05:41:00,44.0,40.0,29.57,North,-999,-999.0,-999.0,83,-99.99,,,-99.99,,2013-01-26 05:41:00,
2013-01-26 05:52:00,44.0,40.0,29.57,North,-999,-999.0,-999.0,83,-99.99,,,-99.99,,2013-01-26 05:52:00,
2013-01-26 06:00:00,46.0,40.0,29.61,North,-999,-999.0,-999.0,81,-99.99,,,-99.99,,2013-01-26 06:00:00,
2013-01-26 06:41:00,46.0,40.0,29.61,North,-999,-999.0,-999.0,81,-99.99,,,-99.99,,2013-01-26 06:41:00,
2013-01-26 06:51:00,46.0,40.0,29.61,North,-999,-999.0,-999.0,81,-99.99,,,-99.99,,2013-01-26 06:51:00,
2013-01-26 09:00:00,44.0,39.0,29.66,North,-999,-999.0,-999.0,80,-99.99,,,-99.99,,2013-01-26 09:00:00,
2013-01-26 09:41:00,44.0,39.0,29.66,North,-999,-999.0,-999.0,80,-99.99,,,-99.99,,2013-01-26 09:41:00,
2013-01-26 09:51:00,44.0,39.0,29.66,North,-999,-999.0,-999.0,80,-99.99,,,-99.99,,2013-01-26 09:51:00,
2013-01-26 10:00:00,45.0,39.0,29.66,North,-999,-999.0,-999.0,80,-99.99,,,-99.99,,2013-01-26 10:00:00,
2013-01-26 10:42:00,45.0,39.0,29.66,North,-999,-999.0,-999.0,80,-99.99,,,-99.99,,2013-01-26 10:42:00,
2013-01-26 10:52:00,45.0,39.0,29.66,North,-999,-999.0,-999.0,80,-99.99,,,-99.99,,2013-01-26 10:52:00,
2013-01-26 11:00:00,45.0,40.0,29.67,North,-999,-999.0,-999.0,82,-99.99,,,-99.99,,2013-01-26 11:00:00,
2013-01-26 11:41:00,45.0,40.0,29.67,North,-999,-999.0,-999.0,82,-99.99,,,-99.99,,2013-01-26 11:41:00,
2013-01-26 11:52:00,45.0,40.0,29.67,North,-999,-999.0,-999.0,82,-99.99,,,-99.99,,2013-01-26 11:52:00,
2013-01-26 12:00:00,48.0,42.0,29.64,North,-999,-999.0,-999.0,80,-99.99,,,-99.99,,2013-01-26 12:00:00,
2013-01-26 12:42:00,48.0,42.0,29.64,North,-999,-999.0,-999.0,80,-99.99,,,-99.99,,2013-01-26 12:42:00,
2013-01-26 12:52:00,48.0,42.0,29.64,North,-999,-999.0,-999.0,80,-99.99,,,-99.99,,2013-01-26 12:52:00,
2013-01-26 13:00:00,49.0,42.0,29.59,North,-999,-999.0,-999.0,76,-99.99,,,-99.99,,2013-01-26 13:00:00,
2013-01-26 13:42:00,49.0,42.0,29.59,North,-999,-999.0,-999.0,76,-99.99,,,-99.99,,2013-01-26 13:42:00,
2013-01-26 13:52:00,49.0,42.0,29.59,North,-999,-999.0,-999.0,76,-99.99,,,-99.99,,2013-01-26 13:52:00,
2013-01-26 14:00:00,50.0,41.0,29.53,North,-999,-999.0,-999.0,71,-99.99,,,-99.99,,2013-01-26 14:00:00,
2013-01-26 14:31:00,50.0,41.0,29.53,North,-999,-999.0,-999.0,71,-99.99,,,-99.99,,2013-01-26 14:31:00,
2013-01-26 14:42:00,50.0,41.0,29.53,North,-999,-999.0,-999.0,71,-99.99,,,-99.99,,2013-01-26 14:42:00,
2013-01-26 14:52:00,50.0,41.0,29.53,North,-999,-999.0,-999.0,71,-99.99,,,-99.99,,2013-01-26 14:52:00,
2013-01-26 15:00:00,51.0,40.0,29.47,North,-999,-999.0,-999.0,67,-99.99,,,-99.99,,2013-01-26 15:00:00,
2013-01-26 15:31:00,51.0,40.0,29.47,North,-999,-999.0,-999.0,67,-99.99,,,-99.99,,2013-01-26 15:31:00,
2013-01-26 15:42:00,51.0,40.0,29.47,North,-999,-999.0,-999.0,67,-99.99,,,-99.99,,2013-01-26 15:42:00,
2013-01-26 15:52:00,51.0,40.0,29.47,North,-999,-999.0,-999.0,67,-99.99,,,-99.99,,2013-01-26 15:52:00,
2013-01-26 16:00:00,50.0,45.0,29.42,North,-999,-999.0,-999.0,82,-99.99,,,-99.99,,2013-01-26 16:00:00,
2013-01-26 16:41:00,50.0,45.0,29.42,North,-999,-999.0,-999.0,82,-99.99,,,-99.99,,2013-01-26 16:41:00,
2013-01-26 16:52:00,50.0,45.0,29.42,North,-999,-999.0,-999.0,82,-99.99,,,-99.99,,2013-01-26 16:52:00,
2013-01-26 17:00:00,51.0,47.0,29.41,North,-999,-999.0,-999.0,83,-99.99,,,-99.99,,2013-01-26 17:00:00,
2013-01-26 17:41:00,51.0,47.0,29.41,North,-999,-999.0,-999.0,83,-99.99,,,-99.99,,2013-01-26 17:41:00,
2013-01-26 17:52:00,51.0,47.0,29.41,North,-999,-999.0,-999.0,83,-99.99,,,-99.99,,2013-01-26 17:52:00,
2013-01-26 18:00:00,51.0,47.0,29.34,North,-999,-999.0,-999.0,88,-99.99,,,-99.99,,2013-01-26 18:00:00,
2013-01-26 18:41:00,51.0,47.0,29.34,North,-999,-999.0,-999.0,88,-99.99,,,-99.99,,2013-01-26 18:41:00,
2013-01-26 18:52:00,51.0,47.0,29.34,North,-999,-999.0,-999.0,88,-99.99,,,-99.99,,2013-01-26 18:52:00,
2013-01-26 19:00:00,53.0,49.0,29.25,North,-999,-999.0,-999.0,84,-99.99,,,-99.99,,2013-01-26 19:00:00,
2013-01-26 19:42:00,53.0,49.0,29.25,North,-999,-999.0,-999.0,84,-99.99,,,-99.99,,2013-01-26 19:42:00,
2013-01-26 19:52:00,53.0,49.0,29.25,North,-999,-999.0,-999.0,84,-99.99,,,-99.99,,2013-01-26 19:52:00,
2013-01-26 20:00:00,55.0,50.0,29.20,North,-999,-999.0,-999.0,83,-99.99,,,-99.99,,2013-01-26 20:00:00,
2013-01-26 20:41:00,55.0,50.0,29.20,North,-999,-999.0,-999.0,83,-99.99,,,-99.99,,2013-01-26 20:41:00,
2013-01-26 20:52:00,55.0,50.0,29.20,North,-999,-999.0,-999.0,83,-99.99,,,-99.99,,2013-01-26 20:52:00,
2013-01-26 21:00:00,57.0,50.0,29.16,North,-999,-999.0,-999.0,78,-99.99,,,-99.99,,2013-01-26 21:00:00,
2013-01-26 21:31:00,57.0,50.0,29.16,North,-999,-999.0,-999.0,78,-99.99,,,-99.99,,2013-01-26 21:31:00,
2013-01-26 21:42:00,57.0,50.0,29.16,North,-999,-999.0,-999.0,78,-99.99,,,-99.99,,2013-01-26 21:42:00,
2013-01-26 21:51:00,57.0,50.0,29.16,North,-999,-999.0,-999.0,78,-99.99,,,-99.99,,2013-01-26 21:51:00,
2013-01-26 22:00:00,57.0,49.0,29.08,North,-999,-999.0,-999.0,76,-99.99,,,-99.99,,2013-01-26 22:00:00,
2013-01-26 22:41:00,57.0,49.0,29.08,North,-999,-999.0,-999.0,76,-99.99,,,-99.99,,2013-01-26 22:41:00,
2013-01-26 22:51:00,57.0,49.0,29.08,North,-999,-999.0,-999.0,76,-99.99,,,-99.99,,2013-01-26 22:51:00,
2013-01-26 23:00:00,56.0,51.0,29.02,North,-999,-999.0,-999.0,83,-99.99,,,-99.99,,2013-01-26 23:00:00,
2013-01-26 23:41:00,56.0,51.0,29.02,North,-999,-999.0,-999.0,83,-99.99,,,-99.99,,2013-01-26 23:41:00,
2013-01-26 23:51:00,56.0,51.0,29.02,North,-999,-999.0,-999.0,83,-99.99,,,-99.99,,2013-01-26 23:51:00,